Regional Weather Roundup
Issued by NWS

Home | Current Version | Previous Version | Graphics & Text | Print | Product List | Glossary On
Versions: 1 2 3 4 5 6 7 8 9 10 11 12 13 14 15 16 17 18 19 20 21 22 23 24 25 26 27 28 29 30 31 32 33 34 35 36 37 38 39 40 41 42 43 44 45 46 47 48 49 50
000
ASUS43 KMPX 270410
RWRMN
WEATHER ROUNDUP FOR MINNESOTA
NATIONAL WEATHER SERVICE TWIN CITIES/CHANHASSEN MN
1000 PM CST FRI DEC 26 2014


NOTE: "FAIR" INDICATES FEW OR NO CLOUDS BELOW 12,000 FEET WITH NO
SIGNIFICANT WEATHER AND/OR OBSTRUCTIONS TO VISIBILITY. N/A MEANS
CURRENT SKY AND/OR WEATHER CONDITIONS ARE NOT AVAILABLE.

MNZ060>063-068>070-270500-
   Twin Cities Metro

CITY           SKY/WX    TMP DP  RH WIND       PRES   REMARKS
TWIN CITIES    LGT SNOW  29  25  85 N9        30.07S FOG     WCI  20
ST PAUL        FLURRIES  29  26  89 N9        30.08S WCI  20
CRYSTAL        LGT SNOW  29  26  89 N9        30.07S FOG     WCI  20
BLAINE         LGT SNOW  28  28 100 N9        30.07S WCI  20
LAKEVILLE      MIX PCPN  28  27  93 N6        30.06S WCI  22
EDEN PRAIRIE   LGT SNOW  29  25  85 N7        30.06R FOG     WCI  22
SOUTH ST PAUL  CLOUDY    30  28  90 N8        30.06S WCI  22
LAKE ELMO      FLURRIES  30  28  93 N6        30.06S WCI  24
$$
MNZ001>005-007-008-013>017-022>024-027-028-270500-
   Northwest Minnesota

CITY           SKY/WX    TMP DP  RH WIND       PRES   REMARKS
BEMIDJI        CLOUDY    18  13  80 N7        30.13F WCI   9
HALLOCK        CLOUDY     9   7  92 N8        30.22F WCI  -4
ROSEAU         FLURRIES  14   7  73 NW7       30.18F WCI   4
WARROAD        FLURRIES  12   7  79 W6        30.18S WCI   3
THIEF RVR FALL CLOUDY    10   7  85 NW6       30.19F WCI   1
CROOKSTON      FLURRIES  10   7  85 N8        30.23F WCI  -1
FOSSTON        LGT SNOW  12  10  92 NW6       30.17F WCI   3
DETROIT LAKES  LGT SNOW  16  14  93 NW10      30.17S WCI   3
MOORHEAD       MOCLDY    12   9  85 N9        30.23S WCI   0
PARK RAPIDS    CLOUDY    22  15  75 N6        30.12S WCI  14
MAHNOMEN       CLOUDY    11   8  88 NW7       30.17S WCI   1
$$
MNZ006-009>011-018-025>026-270500-
   North Central Minnesota

CITY           SKY/WX    TMP DP  RH WIND       PRES   REMARKS
BAUDETTE       CLOUDY    14   8  77 N8        30.16S WCI   3
FLAG ISLAND    CLOUDY    10   7  85 N7        30.17S WCI   0
INTL FALLS     CLOUDY    17  10  74 NW6       30.14S WCI   9
WASKISH        CLOUDY    18  10  73 CALM      30.15F
BIG FORK       FLURRIES  19  14  79 N7        30.13F WCI  10
LONGVILLE      CLOUDY    21  16  79 N6        30.13S WCI  14
GRAND RAPIDS   CLOUDY    19  12  73 N6        30.11F WCI  11
CRANE LAKE     CLOUDY    18  14  86 NW3       30.16S
ORR            CLOUDY    19  12  73 CALM      30.10S
COOK           CLOUDY    19  16  86 NW5       30.12S WCI  13
WALKER         CLOUDY    20  14  76 NW3       30.13S
$$
MNZ012-019>021-037-270500-
   Northeast Minnesota

CITY           SKY/WX    TMP DP  RH WIND       PRES   REMARKS
DULUTH         CLOUDY    26  17  68 N8        30.06F WCI  18
ELY            FLURRIES  19  16  86 NW6       30.09S WCI  11
HIBBING        CLOUDY    23  15  71 NW9       30.10F WCI  13
EVELETH        MIX PCPN  23  18  80 N5        30.11S WCI  17
DULUTH HARBOR  CLOUDY    30  21  69 NW10      30.11F WCI  21
TWO HARBORS    CLOUDY    28  21  74 NW5       30.07S WCI  23
GRAND MARAIS     N/A     28  21  75 N12G18    30.10S WCI  18
G MARAIS ARPRT MOCLDY    19  16  86 NW5       30.05S WCI  13
$$
MNZ029>031-032-039>041-046>048-054>057-064-270500-
   West Central Minnesota

CITY           SKY/WX    TMP DP  RH WIND       PRES   REMARKS
FERGUS FALLS   CLOUDY    18  12  79 N10G18    30.19F WCI   6
WHEATON        FLURRIES  18  14  86 N15       30.19F WCI   3
MORRIS         CLOUDY    21  18  86 N16       30.13F WCI   7
ALEXANDRIA     CLOUDY    23  17  78 N12       30.11F WCI  12
ELBOW LAKE     CLOUDY    19  16  87 N13       30.13F WCI   7
WADENA         CLOUDY    21  16  79 N7        30.12F WCI  13
GLENWOOD       CLOUDY    23  19  86 N8        30.11F WCI  14
APPLETON       CLOUDY    25  19  80 N13       30.14F WCI  13
BENSON         CLOUDY    25  19  80 NE8       30.13F WCI  16
ORTONVILLE     CLOUDY    21  16  79 N18       30.15S WCI   6
MADISON        CLOUDY    27  21  80 N15       30.14F WCI  15
WILLMAR        CLOUDY    27  21  80 N9        30.11F WCI  17
$$
MNZ033>034-036-042>043-049>051-058-059-270500-
   Central Minnesota

CITY           SKY/WX    TMP DP  RH WIND       PRES   REMARKS
ST CLOUD       CLOUDY    29  20  69 N8        30.10S WCI  21
SAUK CENTRE    CLOUDY    23  17  77 N9        30.11S WCI  13
PAYNESVILLE    CLOUDY    23  18  83 NW7       30.11F WCI  14
AITKIN         CLOUDY    25  18  74 N6        30.10F WCI  18
PINE RIVER     CLOUDY    21  16  79 N9        30.15F WCI  11
BRAINERD       CLOUDY    21  15  78 N9        30.13S WCI  11
STAPLES        CLOUDY    21  16  79 N7        30.12F WCI  13
LONG PRAIRIE   CLOUDY    23  18  80 N9        30.11S WCI  13
LITTLE FALLS   CLOUDY    23  18  80 CALM      30.13R
LITCHFIELD     CLOUDY    27  23  86 N10       30.09F WCI  17
BUFFALO        LGT SNOW  27  24  89 N9        30.09F WCI  17
MAPLE LAKE     CLOUDY    28  24  86 N8        30.10S WCI  20
$$
MNZ037-044-045-052-053-270500-
   East Central Minnesota

CITY           SKY/WX    TMP DP  RH WIND       PRES   REMARKS
PRINCETON      CLOUDY    28  21  74 N9        30.10S WCI  20
MORA           CLOUDY    27  19  74 N5        30.11S WCI  21
CAMBRIDGE      LGT SNOW  30  21  69 N6        30.08S WCI  24
RUSH CITY      CLOUDY    28  23  81 N7        30.09S WCI  21
MOOSE LAKE     CLOUDY    27  19  74 N7        30.08S WCI  19
HINCKLEY       CLOUDY    28  23  80 CALM      30.10S
CLOQUET        CLOUDY    25  18  74 NW9       30.08S WCI  15
MCGREGOR       CLOUDY    23  19  86 NW10      30.11S WCI  12
$$
MNZ071>073-080-081-089-090-097-098-270500-
   Southwest Minnesota

CITY           SKY/WX    TMP DP  RH WIND       PRES   REMARKS
MONTEVIDEO     CLOUDY    25  21  86 NE14      30.12F WCI  13
GRANITE FALLS  CLOUDY    25  21  87 NW13G18   30.12F WCI  13
CANBY          CLOUDY    23  20  88 N12G17    30.14S WCI  12
MARSHALL       CLOUDY    23  18  80 N18       30.09S WCI   9
REDWOOD FALLS  LGT SNOW  26  23  88 N8        30.08F FOG     WCI  18
OLIVIA         CLOUDY    27  23  86 N10G17    30.08F WCI  17
PIPESTONE      LGT SNOW  21  19  93 N13G22    30.05F WCI   9
WINDOM         LGT SNOW  25  25 100 N15       30.03F WCI  12
WORTHINGTON    CLOUDY    25 -22  12 N15G21    30.04F WCI  12
JACKSON        CLOUDY    28  25  86 VRB18G24  30.00F WCI  16
TRACY          LGT SNOW  25  24  95 N13       30.08S WCI  13
SLAYTON        LGT SNOW  23  21  94 N15       30.05F VSB 1   WCI  10
$$
MNZ065>067-074>077-082>085-091>093-270500-
   South Central Minnesota

CITY           SKY/WX    TMP DP  RH WIND       PRES   REMARKS
MANKATO        CLOUDY    28  25  86 N13       30.04F WCI  18
NEW ULM        LGT SNOW  27  25  93 N6        30.07F WCI  20
ST JAMES       FLURRIES  28  27  93 N14       30.05F WCI  17
FAIRMONT       CLOUDY    28  25  86 N17       30.01F WCI  16
GLENCOE        LGT SNOW  28  27  96 N8        30.08S WCI  19
FARIBAULT      CLOUDY    28  27  93 N9        30.05R FOG     WCI  20
OWATONNA       CLOUDY    30  27  86 N10       30.03S WCI  21
WASECA         LGT SNOW  30  27  86 N13       30.04S WCI  20
ALBERT LEA     CLOUDY    30  28  93 N13       30.00F WCI  20
$$
MNZ078>079-086>088-094>096-270500-
   Southeast Minnesota

CITY           SKY/WX    TMP DP  RH WIND       PRES   REMARKS
ROCHESTER      LGT SNOW  30  29  96 N8        30.00R VSB 3/4 WCI  22
RED WING       MIX PCPN  32  28  86 N5        30.03F WCI  27
STANTON        CLOUDY    31  28  88 N9        30.04R WCI  23
DODGE CENTER   LGT SNOW  30  30 100 N12       30.00S WCI  21
WINONA         LGT SNOW  34  34 100 CALM      30.01F VSB 1
AUSTIN         LGT SNOW  30  28  93 N9        29.98F WCI  22
PRESTON        LGT SNOW  31  30  97 N5        29.98F WCI  26
$$
ABBREVIATIONS USED IN REMARKS
   TC - TEMPERATURES IN CELSIUS
  WCI - WIND CHILL INDEX
   HX - HEAT INDEX
  VSB - VISIBILITY
$$



USA.gov is the U.S. government's official web portal to all federal, state and local government web resources and services.